Weather in Berezovaya Roshcha

Russia / Bryansk Oblast     52°52′23″N   33°55′15″E
temp.,
°C
wind,
m/s
gust,
m/s
humid.,
%
clouds,
%
prec.,
mm/h
press.,
hPa
HPBL,
m
11 april, sun
sun1100:00+4ssw35700 0.0 102762
03:00+3ssw33720 0.0 102739
06:00+2ssw22730 0.0 102818
09:00+7s33590 0.0 1030232
12:00+12s22440 0.0 1029834
15:00+14ese11380 0.0 10291251
18:00+13e23480 0.0 1029127
21:00+8e33630 0.0 103039
12 april, mon
mon1200:00+6ene3468100 0.0 103049
03:00+5ene3573100 0.0 103086
06:00+4ne3977100 0.0 1029171
09:00+8ene51156100 0.0 1028462
12:00+10e5771100 0.0 1027676
15:00+12e4573100 0.0 1025574
18:00+13ene3676100 0.0 1024229
21:00+10ene3589100 0.0 102471
13 april, tue
tue1300:00+10ne3390100 0.0 102239
03:00+10ese2286100 0.0 102227
06:00+9se3484100 0.0 102245
09:00+13se4770100 0.0 1022263
12:00+18se575241 0.0 10211191
15:00+19se694698 0.0 10211826
18:00+17sse365782 0.0 1020260
21:00+13ese366889 0.0 102092
14 april, wed
wed1400:00+12se3675100 0.0 1020137
03:00+12se3875100 0.0 1019255
06:00+11ese3584100 0.0 1019144
09:00+11se368497 0.0 1019322
12:00+16sse476086 0.1 10171387
15:00+15s3567100 1.4 1016594
18:00+12sse71377100 3.1 10171103
21:00+11s3787100 3.1 1017280
15 april, thu
thu1500:00+10sse249447 0.0 1016122
03:00+8sse2294100 0.0 101627
06:00+7sse1191100 0.0 101611
09:00+11ese1176100 0.0 1016216
12:00+15ene1157100 0.0 1016851
15:00+17ene2345100 0.0 10151683
18:00+12sse2478100 0.5 1015104
21:00+11nne3681100 0.9 1015140